Location: Alameda Baptist Church Library
(35.0848°N, 106.6511°W)
Time: 20:47:53
(UTC+00:00)

Daily predictions for brighter satellites

Satellite Brightness Start Highest point End
(mag) Time Altitude Azimuth Time Altitude Azimuth Time Altitude Azimuth
CZ-4B R/B 4.0 12:00:13 10° N 12:04:06 50° WNW 12:08:09 10° SSW
Milstar 3 Cent rocket 3.4 12:02:04 11° SW 12:06:39 28° S 12:10:38 10° ESE
Cosmos 1484 Rocket 3.0 12:03:34 10° NNE 12:07:22 72° ESE 12:11:12 10° S
In-Cosmos 22 4.2 12:02:07 10° S 12:07:24 81° E 12:12:49 10° N
Okean 1-7 Rocket 3.6 12:04:21 10° S 12:08:45 88° E 12:13:15 10° N
Cosmos 1726 3.4 12:12:04 10° N 12:15:35 43° E 12:19:05 10° SSE
H-2A R/B 4.0 12:13:28 10° NNW 12:16:17 18° WNW 12:16:17 18° WNW
Meteor 1-4 Rocket 3.0 12:14:34 10° SW 12:17:49 34° WNW 12:21:03 10° N
Cosmos 1674 3.4 12:16:20 10° S 12:19:58 56° E 12:23:37 10° NNE
Cosmos 676 Rocket 4.2 12:15:11 10° SW 12:20:18 49° WNW 12:25:25 10° N
COSMO-SKYMED 1 2.9 12:16:06 10° SSE 12:20:23 69° ENE 12:24:43 10° N
SeaSat 1 4.4 12:16:07 10° NE 12:20:31 32° ESE 12:24:53 10° S
MOS 1-B 4.3 12:16:13 10° NNE 12:22:03 80° WNW 12:27:51 10° SSW
ATLAS 3B R/B 2.7 12:15:47 10° NNW 12:22:34 90° ESE 12:29:30 10° SSE
CZ-4B R/B 3.7 12:23:24 10° NNE 12:28:39 64° ESE 12:33:53 10° S
Cosmos 962 Rocket 4.5 12:27:36 10° SSW 12:33:49 69° W 12:40:09 10° N
ALOS 2.4 12:30:09 10° NNE 12:34:50 80° ESE 12:39:30 10° S
CENTAUR R/B 3.3 12:26:46 10° NW 12:35:02 71° WSW 12:43:42 10° SSE
COBE Rocket 3.9 12:31:24 10° S 12:36:20 72° W 12:41:27 10° NNW
Cosmos 389 Rocket 4.3 12:37:44 11° W 12:38:30 12° WNW 12:39:51 10° NW
Cosmos 2154 Rocket 4.4 12:32:53 10° SW 12:38:34 38° WNW 12:44:18 10° N
CZ-2C R/B 3.7 12:35:02 10° NNW 12:38:56 22° WNW 12:42:47 10° WSW
Cosmos 1726 Rocket 3.7 12:35:17 10° NNW 12:39:25 47° W 12:43:33 10° SSW
ATLAS 2AS CENTAUR R/B 4.2 12:34:27 10° W 12:40:14 22° NW 12:46:15 10° N
Meteor 1-24 Rocket 4.2 12:36:11 10° S 12:41:47 72° E 12:47:38 10° NNE
Cosmos 2228 3.4 12:38:01 10° NNW 12:42:01 40° W 12:45:58 10° SSW
BREEZE-M DEB (TANK) 3.8 12:42:18 10° W 12:47:50 34° NNW 12:50:36 10° NE
Okean O Rocket 1.6 12:43:54 10° N 12:48:17 70° WNW 12:52:36 10° SSW
Cosmos 1437 Rocket 3.2 12:45:49 10° SSW 12:49:21 37° WNW 12:52:53 10° N
PSLV R/B 3.1 12:46:51 10° W 12:49:23 44° NNW 12:51:56 10° ENE
Cosmos 1602 Rocket 4.1 12:46:14 10° S 12:50:31 64° E 12:54:49 10° NNE
